San Diego, CA

10:18 AM PDT on August 19, 2017 (GMT -0700)
San Diego International-Lindbergh

Weather History for KSAN - September, 2013

Change the Weather History Date:

Saturday, September 14, 2013

  Actual Average Record
Temperature  
Mean Temperature 70 °F 71 °F  
Max Temperature 75 °F 76 °F 92 °F (1879)
Min Temperature 65 °F 66 °F 53 °F (1894)
Degree Days  
Heating Degree Days 0 0  
Month to date heating degree days 0 0  
Since 1 July heating degree days 0 1  
Cooling Degree Days 5 6  
Month to date cooling degree days 129 90  
Year to date cooling degree days 608 558  
Growing Degree Days 20 (Base 50)    
Moisture  
Dew Point 63 °F    
Average Humidity 79    
Maximum Humidity 93    
Minimum Humidity 64    
Precipitation  
Precipitation 0.00 in 0.01 in 0.29 in (1875)
Month to date precipitation T 0.04  
Year to date precipitation 3.38 7.12  
Since 1 July precipitation 0.05  
Snow  
Snow 0.00 in - - ()
Month to date snowfall 0.0  
Year to date snowfall 0.0  
Snow Depth 0.00 in    
Sea Level Pressure  
Sea Level Pressure 29.70 in    
Wind  
Wind Speed 4 mph (NW)    
Max Wind Speed 10 mph    
Max Gust Speed 14 mph    
Visibility 8 miles    
Events      
T = Trace of Precipitation, MM = Missing Value Source: NWS Daily Summary

Daily Weather History Graph

Daily Weather History Graph

Search for Another Location

Airport or City:

Trip Planner

Search our weather history database for the weather conditions in past years. The results will help you decide how hot, cold, wet, or windy it might be!

Date:

Astronomy

Sep. 14, 2013 Rise Set
Actual Time 6:32 AM PDT 6:55 PM PDT
Civil Twilight 6:07 AM PDT 7:20 PM PDT
Nautical Twilight 5:38 AM PDT 7:49 PM PDT
Astronomical Twilight 5:08 AM PDT 8:18 PM PDT
Moon 3:29 PM PDT (9/14) 1:21 AM PDT (9/14)
Length of Visible Light 13h 13m
Length of Day
12h 23m
Waxing Gibbous, 73% of the Moon is Illuminated
Sep 14
Waxing Gibbous
Sep 19
Full
Sep 26
Last Quarter
Oct 4
New
Oct 11
First Quarter

Hourly Weather History & Observations

Time (PDT) Temp. Dew Point Humidity Pressure Visibility Wind Dir Wind Speed Gust Speed Precip Events Conditions
12:51 AM 66.9 °F 63.0 °F 87% 29.72 in 10.0 mi WNW 3.5 mph - N/A   Mostly Cloudy
1:51 AM 66.9 °F 63.0 °F 87% 29.71 in 10.0 mi NNW 3.5 mph - N/A   Mostly Cloudy
2:51 AM 66.0 °F 63.0 °F 90% 29.70 in 7.0 mi Calm Calm - N/A   Overcast
3:51 AM 64.9 °F 63.0 °F 93% 29.69 in 6.0 mi Calm Calm - N/A   Overcast
4:51 AM 66.0 °F 63.0 °F 90% 29.70 in 5.0 mi Calm Calm - N/A   Overcast
5:51 AM 66.0 °F 63.0 °F 90% 29.70 in 4.0 mi North 3.5 mph - N/A   Overcast
6:15 AM 66.2 °F 62.6 °F 88% 29.71 in 2.5 mi NNW 3.5 mph - N/A   Overcast
6:51 AM 64.9 °F 62.1 °F 90% 29.72 in 2.5 mi Calm Calm - N/A   Overcast
7:51 AM 66.0 °F 62.1 °F 87% 29.73 in 2.5 mi Calm Calm - N/A   Overcast
8:51 AM 66.0 °F 62.1 °F 87% 29.74 in 3.0 mi West 3.5 mph - N/A   Mostly Cloudy
9:22 AM 66.2 °F 62.6 °F 88% 29.74 in 5.0 mi West 3.5 mph - N/A   Haze
9:42 AM 69.8 °F 62.6 °F 78% 29.74 in 6.0 mi Variable 3.5 mph - N/A   Haze
9:51 AM 69.1 °F 61.0 °F 75% 29.74 in 7.0 mi Variable 3.5 mph - N/A   Scattered Clouds
10:51 AM 72.0 °F 61.0 °F 68% 29.73 in 10.0 mi NW 4.6 mph - N/A   Partly Cloudy
11:51 AM 73.9 °F 62.1 °F 66% 29.72 in 10.0 mi NW 4.6 mph - N/A   Partly Cloudy
12:51 PM 75.0 °F 62.1 °F 64% 29.70 in 10.0 mi NW 5.8 mph - N/A   Partly Cloudy
1:51 PM 73.0 °F 62.1 °F 68% 29.68 in 10.0 mi WNW 8.1 mph - N/A   Partly Cloudy
2:51 PM 75.0 °F 62.1 °F 64% 29.67 in 10.0 mi WNW 8.1 mph - N/A   Partly Cloudy
3:51 PM 73.0 °F 62.1 °F 68% 29.66 in 10.0 mi NW 8.1 mph - N/A   Partly Cloudy
4:51 PM 73.0 °F 62.1 °F 68% 29.66 in 10.0 mi WNW 6.9 mph - N/A   Partly Cloudy
5:51 PM 73.0 °F 63.0 °F 71% 29.67 in 10.0 mi WNW 6.9 mph - N/A   Partly Cloudy
6:51 PM 71.1 °F 63.0 °F 75% 29.67 in 10.0 mi WNW 5.8 mph - N/A   Partly Cloudy
7:51 PM 70.0 °F 64.0 °F 81% 29.69 in 10.0 mi WNW 5.8 mph - N/A   Partly Cloudy
8:51 PM 70.0 °F 64.0 °F 81% 29.71 in 10.0 mi NW 3.5 mph - N/A   Partly Cloudy
9:51 PM 69.1 °F 63.0 °F 81% 29.71 in 10.0 mi West 3.5 mph - N/A   Partly Cloudy
10:51 PM 69.1 °F 64.0 °F 84% 29.71 in 9.0 mi Calm Calm - N/A   Partly Cloudy
11:51 PM 69.1 °F 63.0 °F 81% 29.72 in 7.0 mi Calm Calm - N/A   Partly Cloudy